Header for Extended Forecast Station List Page

Search by: ID | Name | Date | Parm | Value | Avg | % Avg
Sort by: ID | Name | Date | Parm | Value | Avg | % Avg

Enter search or view all records.

Click on id for station plot
#IDNameDateParmValueAvg% Avg
0MYKO3MCKAY CREEK-NEAR PILOT ROCK06-17-2024DISCHARGE (KAF)1150
1WRMO3MALHEUR-WARM SPRINGS DAM06-17-2024INFLOW (KAF)3563
2TCHW1WALLA WALLA-NEAR TOUCHET06-17-2024DISCHARGE (KAF)41132
3BERO3MALHEUR-AGENCY VALLEY DAM06-17-2024INFLOW (KAF)81367
4TNAW1TEANAWAY-BELOW FORKS06-17-2024DISCHARGE (KAF)91372
5PDTO3UMATILLA-AT PENDLETON06-17-2024DISCHARGE (KAF)101565
6GIBO3UMATILLA-NEAR GIBBON06-17-2024DISCHARGE (KAF)121397
7LWRI1LITTLE WOOD-LITTLE WOOD DAM06-17-2024INFLOW (KAF)151788
8RIDI1WILLOW CREEK-RIRIE DAM06-17-2024INFLOW (KAF)167239
9DLGM8CLARK FORK-AT DEER LODGE06-17-2024DISCHARGE (KAF)174240
10SATI1ST MARIES-NEAR SANTA06-17-2024DISCHARGE (KAF)182090
11KADW1KACHESS-KACHESS DAM06-17-2024INFLOW (KAF)192771
12BUDW1BUMPING-BUMPING LAKE DAM06-17-2024INFLOW (KAF)223367
13PARW1YAKIMA-NEAR PARKER06-17-2024DISCHARGE (KAF)2212717
14KEDW1YAKIMA-KEECHELUS LAKE06-17-2024INFLOW (KAF)243180
15DEDI1DEADWOOD-NEAR LOWMAN06-17-2024INFLOW (KAF)243275
16PIHI1PORTNEUF-AT POCATELLO06-17-2024DISCHARGE (KAF)3217188
17UMAO3UMATILLA-NEAR UMATILLA06-17-2024DISCHARGE (KAF)3526134
18STRM8ST. REGIS-NEAR ST. REGIS06-17-2024DISCHARGE (KAF)375172
19MAGI1BIG WOOD-MAGIC DAM06-17-2024INFLOW (KAF)384487
20HOTI1BRUNEAU-NEAR HOT SPRINGS06-17-2024DISCHARGE (KAF)4334125
21EASW1YAKIMA-AT EASTON06-17-2024DISCHARGE (KAF)497664
22ARDW1ENTIAT-NEAR ARDENVOIR06-17-2024DISCHARGE (KAF)537373
23WSRI1WEISER-NEAR WEISER06-17-2024DISCHARGE (KAF)556586
24MONO3NF JOHN DAY-AT MONUMENT06-17-2024DISCHARGE (KAF)5553104
25HWRI1BIG LOST-AT HOWELL RANCH NEAR CHILLY06-17-2024DISCHARGE (KAF)606986
26MACI1BIG LOST-MACKAY RESERVOIR NEAR MACKAY06-17-2024INFLOW (KAF)6968101
27DRMM8CLARK FORK-NR DRUMMOND06-17-2024DISCHARGE (KAF)7412260
28RCCM8ROCK CREEK-NEAR CLINTON06-17-2024DISCHARGE (KAF)7510968
29RILW1TIETON-RIMROCK LAKE NEAR RIMROCK06-17-2024INFLOW (KAF)779283
30CHEI1FALL RIVER-NEAR CHESTER06-17-2024DISCHARGE (KAF)7711766
31CLUW1CLE ELUM-CLE ELUM LAKE06-17-2024INFLOW (KAF)7811966
32HALI1BIG WOOD-AT HAILEY06-17-2024DISCHARGE (KAF)798197
33ARAI1SF BOISE-ANDERSON RANCH DAM06-17-2024INFLOW (KAF)8010675
34CLFW1NACHES-NEAR CLIFFDEL06-17-2024DISCHARGE (KAF)8112366
35OWYO3OWYHEE-OWYHEE DAM06-17-2024INFLOW (KAF)8166123
36SERO3JOHN DAY-AT SERVICE CK06-17-2024DISCHARGE (KAF)8980110
37CSDI1NF PAYETTE-CASCADE DAM06-17-2024INFLOW (KAF)9088102
38HODO3HOOD-NEAR TUCKER BRIDGE06-17-2024DISCHARGE (KAF)9794103
39IPDI1HENRYS FORK-ISLAND PARK DAM06-17-2024INFLOW (KAF)11513982
40BIGI1BOISE-AT GLENWOOD BRIDGE06-17-2024DISCHARGE (KAF)13021062
41BONM8BLACKFOOT-NEAR BONNER06-17-2024DISCHARGE (KAF)13326650
42PARI1BOISE-NEAR PARMA06-17-2024DISCHARGE (KAF)14419674
43NACW1NACHES-NEAR NACHES06-17-2024DISCHARGE (KAF)16025463
44PATW1METHOW-NEAR PATEROS06-17-2024DISCHARGE (KAF)16426662
45UNDW1WHITE SALMON-NEAR UNDERWOOD06-17-2024DISCHARGE (KAF)172172100
46ANTI1HENRYS FORK-AT ST. ANTHONY06-17-2024DISCHARGE (KAF)17732255
47PITW1KLICKITAT-NEAR PITT06-17-2024DISCHARGE (KAF)20021593
48PRTI1PRIEST-NEAR PRIEST RIVER06-17-2024DISCHARGE (KAF)201185109
49CHDW1CHELAN-LAKE CHELAN DAM06-17-2024INFLOW (KAF)21342950
50TONW1OKANOGAN-NEAR TONASKET06-17-2024DISCHARGE (KAF)23653145
51JLKW4SNAKE-JACKSON LAKE AT DAM06-17-2024INFLOW (KAF)23926889
52TEAI1TETON-NEAR ST. ANTHONY06-17-2024DISCHARGE (KAF)250208120
53TRYO3GRANDE RONDE-TROY06-17-2024DISCHARGE (KAF)25431381
54REXI1HENRYS FORK-AT REXBURG06-17-2024DISCHARGE (KAF)26732981
55COEI1COEUR D ALENE-COEUR D ALENE LAKE06-17-2024INFLOW (KAF)28132586
56ABOM8CLARK FORK-ABOVE MISSOULA06-17-2024DISCHARGE (KAF)29453955
57BITM8BITTERROOT-NEAR MISSOULA06-17-2024DISCHARGE (KAF)29941073
58KIOW1YAKIMA-AT KIONA06-17-2024DISCHARGE (KAF)30138379
59DWRI1NF CLEARWATER-DWORSHAK DAM06-17-2024INFLOW (KAF)36751571
60WGCM8MF FLATHEAD-NEAR WEST GLACIER06-17-2024DISCHARGE (KAF)36852171
61HHWM8SF FLATHEAD-HUNGRY HORSE DAM06-17-2024INFLOW (KAF)37852872
62LAUW1KETTLE-AT LAURIER06-17-2024DISCHARGE (KAF)385371104
63SPOW1SPOKANE-AT SPOKANE06-17-2024DISCHARGE (KAF)38848580
64EMMI1PAYETTE-NEAR EMMETT06-17-2024DISCHARGE (KAF)40842097
65FCFM8NF FLATHEAD-NEAR COLUMBIA FALLS06-17-2024DISCHARGE (KAF)43056976
66PESW1WENATCHEE-AT PESHASTIN06-17-2024DISCHARGE (KAF)43048389
67LLKW1SPOKANE-AT LONGLAKE06-17-2024INFLOW (KAF)54063885
68UMTW1YAKIMA-AT UMTANUM06-17-2024DISCHARGE (KAF)56367983
69BELM8CLARK FORK-BELOW MISSOULA06-17-2024DISCHARGE (KAF)59396861
70SNAI1SNAKE-AT BLACKFOOT06-17-2024DISCHARGE (KAF)60774881
71BFTI1SNAKE-NEAR BLACKFOOT06-17-2024DISCHARGE (KAF)61370887
72LUCI1BOISE-LUCKY PEAK DAM06-17-2024INFLOW (KAF)632627101
73SRGM8CLARK FORK-AT ST REGIS06-17-2024DISCHARGE (KAF)792125363
74ORFI1CLEARWATER-AT OROFINO06-17-2024DISCHARGE (KAF)79897682
75MODO3DESCHUTES-AT MOODY NR BIGGS06-17-2024DISCHARGE (KAF)10841087100
76JKSW4SNAKE-NEAR JACKSON06-17-2024DISCHARGE (KAF)11561128103
77AFRI1SNAKE-AMERICAN FALLS RESERVOIR06-17-2024INFLOW (KAF)1160124493
78SHYI1SNAKE-NEAR SHELLEY06-17-2024DISCHARGE (KAF)1174132888
79SIFI1SNAKE-AB EAGLE ROCK NR IDAHO FALLS06-17-2024DISCHARGE (KAF)1325147390
80ALPW4SNAKE-NEAR ALPINE06-17-2024DISCHARGE (KAF)13671336102
81WHBI1SALMON-AT WHITEBIRD06-17-2024DISCHARGE (KAF)1609192684
82SWAI1SNAKE-BELOW SWAN FALLS06-17-2024DISCHARGE (KAF)1610162699
83CFMM8FLATHEAD-AT COLUMBIA FALLS06-17-2024DISCHARGE (KAF)1679191688
84PLDI1SF SNAKE-PALISADES DAM06-17-2024INFLOW (KAF)18151717106
85KERM8FLATHEAD-SELI’Š KSANKA QLISPE’ DAM06-17-2024INFLOW (KAF)1845229380
86LEOI1KOOTENAI-AT LEONIA06-17-2024DISCHARGE (KAF)2059275675
87HEII1SNAKE-NEAR HEISE06-17-2024DISCHARGE (KAF)2218239393
88LYDM8KOOTENAI-LIBBY DAM06-17-2024INFLOW (KAF)2370284383
89SPDI1CLEARWATER-AT SPALDING06-17-2024DISCHARGE (KAF)2430265891
90WEII1SNAKE-AT WEISER06-17-2024DISCHARGE (KAF)2490251099
91BRNI1SNAKE-BROWNLEE DAM06-17-2024INFLOW (KAF)26522645100
92NOXM8CLARK FORK-NOXON RAPIDS DAM06-17-2024INFLOW (KAF)3080397677
93CABI1CLARK FORK-CABINET GORGE DAM06-17-2024INFLOW (KAF)3385438177
94ALFW1PEND OREILLE-ALBENI FALLS DAM06-17-2024INFLOW (KAF)3622444781
95ANAW1SNAKE-NEAR ANATONE06-17-2024DISCHARGE (KAF)4776549187
96LGDW1SNAKE-LOWER GRANITE DAM06-17-2024INFLOW (KAF)7206837286
97LGSW1SNAKE-LITTLE GOOSE DAM06-17-2024INFLOW (KAF)7206836086
98LMNW1SNAKE-LOWER MONUMENTAL DAM06-17-2024INFLOW (KAF)7213834986
99IHDW1SNAKE-ICE HARBOR DAM06-17-2024INFLOW (KAF)7218836186
100CHJW1COLUMBIA-CHIEF JOSEPH DAM06-17-2024INFLOW (KAF)192532365681
101CIBW1COLUMBIA-AT INTL BOUNDARY06-17-2024DISCHARGE (KAF)194782472179
102WELW1COLUMBIA-WELLS DAM06-17-2024INFLOW (KAF)196752465180
103RRHW1COLUMBIA-ROCKY REACH DAM06-17-2024INFLOW (KAF)198842535678
104WANW1COLUMBIA-WANAPUM DAM06-17-2024INFLOW (KAF)203852574779
105PRWW1COLUMBIA-PRIEST RAPIDS DAM06-17-2024INFLOW (KAF)203872583579
106GCDW1COLUMBIA-GRAND COULEE DAM06-17-2024INFLOW (KAF)204562365286
107MCDW1COLUMBIA-MCNARY DAM06-17-2024INFLOW (KAF)280163505580
108JDAO3COLUMBIA-JOHN DAY DAM06-17-2024INFLOW (KAF)285203484382
109TDAO3COLUMBIA-THE DALLES DAM06-17-2024INFLOW (KAF)289913520982
110BONO3COLUMBIA-BONNEVILLE DAM06-17-2024INFLOW (KAF)294743629681
111BFEI1KOOTENAI-AT BONNERS FERRY06-17-2024STAGE (FT)MMM
112HOPI1PEND OREILLE-LAKE PEND OREILLE NR HOPE06-17-2024LAKE ELEVATION (FT)MMM
113SJMI1ST JOE-AT ST MARIES06-17-2024STAGE (FT)MMM
114MILI1SNAKE-AT MILNER06-17-2024DISCHARGE (KAF)M40M
115BULO3BULLY CREEK-BULLY CREEK DAM06-17-2024INFLOW (KAF)MMM